Date,TemperatureHighF,TemperatureAvgF,TemperatureLowF,DewpointHighF,DewpointAvgF,DewpointLowF,HumidityHigh,HumidityAvg,HumidityLow,PressureMaxIn,PressureMinIn,WindSpeedMaxMPH,WindSpeedAvgMPH,GustSpeedMaxMPH,PrecipitationSumIn
2013-10-1,74.5,66.7,62.1,65.4,61.2,58.2,89,83,72,30.55,30.47,0,0,0,0.00
2013-10-2,77.4,69.6,63.5,69.2,64.3,59.1,91,84,75,30.59,30.51,0,0,0,0.00
2013-10-3,78.8,72.0,67.3,69.0,65.8,63.5,90,81,68,30.54,30.44,0,0,0,0.04
2013-10-4,81.2,73.3,67.5,70.9,66.7,63.5,87,80,70,30.55,30.48,0,0,0,0.00
2013-10-5,74.2,70.9,67.0,70.6,66.8,63.3,90,87,82,30.52,30.36,0,0,0,1.94
2013-10-6,67.1,62.9,57.2,63.5,59.5,53.4,91,89,83,30.39,30.22,0,0,0,1.19
2013-10-7,60.1,52.4,46.3,49.4,45.0,41.3,85,76,63,30.62,30.30,0,0,0,0.02
2013-10-8,67.3,56.9,47.0,53.4,48.5,42.9,88,74,56,30.73,30.62,0,0,0,0.00
2013-10-9,70.0,58.4,48.6,54.3,48.5,42.5,80,70,53,30.71,30.62,0,0,0,0.00
2013-10-10,69.3,58.2,51.5,52.0,48.7,45.5,80,71,53,30.64,30.55,0,0,0,0.00
2013-10-11,72.9,59.9,48.6,54.7,49.5,43.3,83,70,49,30.59,30.50,0,0,0,0.00
2013-10-12,74.2,62.7,51.5,59.7,53.8,46.4,85,73,58,30.60,30.51,0,0,0,0.00
2013-10-13,68.2,62.0,52.9,61.1,49.3,41.1,83,65,41,30.82,30.60,0,0,0,0.09
2013-10-14,65.9,55.0,43.7,50.6,44.0,37.8,82,67,52,30.83,30.66,0,0,0,0.00
2013-10-15,65.3,59.5,52.4,60.6,53.6,43.8,87,81,66,30.66,30.39,0,0,0,0.02
2013-10-16,64.6,57.9,48.6,60.7,49.2,41.7,87,73,58,30.46,30.36,0,0,0,0.00
2013-10-17,52.6,48.4,43.9,47.5,42.7,38.8,87,81,72,30.45,30.35,0,0,0,0.07
2013-10-18,62.8,51.7,43.7,50.4,43.6,39.5,87,75,53,30.47,30.38,0,0,0,0.01
2013-10-19,51.5,46.6,42.3,41.6,38.8,35.3,87,75,55,30.44,30.34,0,0,0,0.25
2013-10-20,61.4,50.6,41.6,46.7,40.4,34.7,79,69,55,30.46,30.38,0,0,0,0.00
2013-10-21,60.5,50.9,41.8,48.7,42.1,28.4,78,72,59,30.47,30.37,0,0,0,0.00
2013-10-22,50.6,41.7,34.4,35.6,31.3,27.2,81,67,51,30.51,30.30,0,0,0,0.01
2013-10-23,45.7,39.5,34.6,34.8,31.8,27.1,88,75,50,30.51,30.28,0,0,0,0.25
2013-10-24,42.5,39.4,36.0,35.0,31.0,26.0,80,72,61,30.74,30.50,0,0,0,0.00
2013-10-25,47.0,38.7,31.0,29.8,26.9,24.6,78,63,44,30.89,30.70,0,0,0,0.00
2013-10-26,54.2,44.2,37.1,40.2,31.8,26.0,66,62,54,30.70,30.39,0,0,0,0.00
2013-10-27,54.0,43.4,33.5,38.3,33.0,27.9,82,68,51,30.58,30.50,0,0,0,0.00
2013-10-28,58.0,44.5,32.9,39.8,33.9,27.5,83,68,45,30.77,30.55,0,0,0,0.00
2013-10-29,56.5,48.2,38.9,44.5,39.0,32.5,81,71,63,30.82,30.65,0,0,0,0.00
2013-10-30,63.0,56.6,50.8,60.4,52.7,43.2,91,87,72,30.65,30.43,0,0,0,0.08
2013-10-31,63.7,61.2,56.5,60.9,58.1,52.4,91,89,83,30.43,29.78,0,0,0,1.51